Regional Weather Roundup
Issued by NWS

Current Version | Previous Version | Text Only | Print | Product List | Glossary On
Versions: 1 2 3 4 5 6 7 8 9 10 11 12 13 14 15 16 17 18 19 20 21 22 23 24 25 26 27 28 29 30 31 32 33 34 35 36 37 38 39 40 41 42 43 44 45 46 47 48 49 50
000
ASUS44 KBMX 260910
RWRAL

ALABAMA REGIONAL WEATHER ROUNDUP
NATIONAL WEATHER SERVICE BIRMINGHAM AL
400 AM CDT SUN MAR 26 2017

NOTE: "FAIR" INDICATES FEW OR NO CLOUDS BELOW 12,000 FEET
WITH NO SIGNIFICANT WEATHER AND/OR OBSTRUCTIONS TO VISIBILITY.

THE REMARK "TC" DENOTES TEMPERATURE IN DEGREES CELSIUS.

ALZ001>011-014-016>018-020-261000-
NORTH ALABAMA

CITY           SKY/WX    TMP DP  RH WIND       PRES   REMARKS
MUSCLE SHOALS  CLOUDY    59  55  87 S7        29.98S
HUNTSVILLE     CLOUDY    59  57  93 S9        29.98F
DECATUR        CLOUDY    58  57  97 S9        29.99S
HALEYVILLE     LGT RAIN  57  55  93 S8        30.00F
GADSDEN        CLOUDY    59  57  93 S3        30.04S
$$

ALZ012-013-022-023-030>036-040>044-261000-
WEST CENTRAL ALABAMA

CITY           SKY/WX    TMP DP  RH WIND       PRES   REMARKS
TUSCALOOSA     CLOUDY    59  57  93 S3        30.01F
$$

ALZ015-024>027-033>036-040>044-261000-
CENTRAL ALABAMA

CITY           SKY/WX    TMP DP  RH WIND       PRES   REMARKS
BIRMINGHAM     CLOUDY    60  57  89 VRB7      30.04F
MONTGOMERY     CLEAR     58  54  86 NW3       30.03F
SHELBY CO ARPT MOCLDY    60  59  96 S5        30.02F
MAXWELL AFB    CLEAR     57  57 100 N5        30.02S FOG
GREENVILLE     MOCLDY    59  55  87 CALM      30.02F
$$

ALZ019-021-028-029-037-038-045>048-261000-
EAST CENTRAL ALABAMA

CITY           SKY/WX    TMP DP  RH WIND       PRES   REMARKS
ANNISTON       MOCLDY    61  58  90 W3        30.04F
ALEXANDER CITY   N/A     56  56  99 CALM      30.05S FOG
AUBURN         CLEAR     58  57  97 SE7       30.07S
$$

ALZ051>064-261000-
SOUTHWEST ALABAMA

CITY           SKY/WX    TMP DP  RH WIND       PRES   REMARKS
MOBILE         FOG       62  61  96 SE5       30.01F VSB 1/2
BROOKLEY FIELD CLOUDY    67  65  93 SE7       30.02S
EVERGREEN      CLOUDY    61  60  97 S9        30.03F
$$

ALZ049-050-065>069-261000-
SOUTHEAST ALABAMA

CITY           SKY/WX    TMP DP  RH WIND       PRES   REMARKS
DOTHAN         MOCLDY    62  62 100 E3        30.08F
OZARK          CLEAR     60  59  98 CALM      30.04S
TROY           CLEAR     59  59 100 CALM      30.04F
EUFAULA        CLOUDY    63  60  90 SE5       30.05S
$$



USA.gov is the U.S. government's official web portal to all federal, state and local government web resources and services.